Weather History for Juliana Airport, St. Martin

Change the Weather History Date:

Monday, September 9, 2013

  Actual Average Record
Temperature  
Mean Temperature 86 °F -  
Max Temperature 89 °F 87 °F 91 °F (1999)
Min Temperature 82 °F 77 °F 77 °F (1996)
Cooling Degree Days 20    
Growing Degree Days 36 (Base 50)    
Moisture  
Dew Point 74 °F    
Average Humidity 70    
Maximum Humidity 79    
Minimum Humidity 52    
Precipitation  
Precipitation 0.00 in 0.16 in - ()
Sea Level Pressure  
Sea Level Pressure 29.98 in    
Wind  
Wind Speed 8 mph ()    
Max Wind Speed 13 mph    
Max Gust Speed -    
Visibility 7.1 miles    
Events      
Averages and records for this station are not official NWS values.
T = Trace of Precipitation, MM = Missing Value Source: Averaged Metar Reports

Daily Weather History Graph

Daily Weather History Graph

Search for Another Location

Airport:

Trip Planner

Search our weather history database for the weather conditions in past years. The results will help you decide how hot, cold, wet, or windy it might be!

Date:

Astronomy

Sep. 09, 2013 Rise Set
Actual Time 5:59 AM AST 6:19 PM AST
Civil Twilight 5:37 AM AST 6:41 PM AST
Nautical Twilight 5:12 AM AST 7:06 PM AST
Astronomical Twilight 4:46 AM AST 7:32 PM AST
Moon 9:33 AM AST (9/9) 9:18 PM AST (9/9)
Length of Visible Light 13h 03m
Length of Day
12h 20m
Waxing Crescent, 19% of the Moon is Illuminated
Sep 9
Waxing Crescent
Sep 12
First Quarter
Sep 19
Full
Sep 26
Last Quarter
Oct 4
New

Hourly Weather History & Observations

Time (AST) Temp. Heat Index Dew Point Humidity Pressure Visibility Wind Dir Wind Speed Gust Speed Precip Events Conditions
12:00 AM 82.4 °F 89.5 °F 75.2 °F 79% 29.98 in 6.2 mi ESE 5.8 mph - N/A   Scattered Clouds
1:00 AM 82.4 °F 89.5 °F 75.2 °F 79% 29.98 in 6.2 mi SE 4.6 mph - N/A   Scattered Clouds
2:00 AM 83 °F - 75 °F 71% 29.97 in 16 mi ESE 5.8 mph - -   Scattered Clouds
2:00 AM 82.4 °F 89.5 °F 75.2 °F 79% 29.95 in 6.2 mi ESE 5.8 mph - N/A   Partly Cloudy
3:00 AM 82.4 °F 89.5 °F 75.2 °F 79% 29.95 in 6.2 mi SE 9.2 mph - N/A   Partly Cloudy
4:00 AM 82.4 °F 89.5 °F 75.2 °F 79% 29.95 in 6.2 mi SE 10.4 mph - N/A   Partly Cloudy
5:00 AM 82 °F - 75 °F 73% 29.96 in 16 mi ESE 9.2 mph - -   Scattered Clouds
5:00 AM 82.4 °F 89.5 °F 75.2 °F 79% 29.95 in 6.2 mi ESE 9.2 mph - N/A   Partly Cloudy
6:00 AM 82.4 °F 88.2 °F 73.4 °F 74% 29.98 in 6.2 mi ESE 8.1 mph - N/A   Partly Cloudy
7:00 AM 82.4 °F 89.5 °F 75.2 °F 79% 29.98 in 6.2 mi SE 5.8 mph - N/A   Partly Cloudy
8:00 AM 84 °F - 75 °F 68% 30.02 in 9 mi SE 8.1 mph - -   Haze
9:00 AM 84.2 °F 92.3 °F 75.2 °F 74% 30.01 in 6.2 mi ESE 11.5 mph - N/A   Haze
10:00 AM 87.8 °F 93.8 °F 71.6 °F 58% 30.01 in 6.2 mi ESE 9.2 mph - N/A   Haze
11:00 AM 87 °F - 74 °F 59% 30.03 in 9 mi ESE 8.1 mph - -   Haze
11:00 AM 86.0 °F 95.1 °F 75.2 °F 70% 30.01 in 6.2 mi ESE 8.1 mph - N/A   Haze
12:00 PM 87.8 °F 95.6 °F 73.4 °F 62% 30.01 in 6.2 mi ESE 6.9 mph - N/A   Haze
1:00 PM 89.6 °F 94.7 °F 69.8 °F 52% 29.98 in 6.2 mi ESE 8.1 mph - N/A   Partly Cloudy
2:00 PM 89.6 °F 96.2 °F 71.6 °F 55% 29.98 in 6.2 mi ESE 8.1 mph - N/A   Partly Cloudy
3:00 PM 87.8 °F 95.6 °F 73.4 °F 62% 29.95 in 6.2 mi East 9.2 mph - N/A   Partly Cloudy
4:00 PM 87.8 °F 93.8 °F 71.6 °F 58% 29.95 in 6.2 mi East 10.4 mph - N/A   Partly Cloudy
5:00 PM 86.0 °F 93.4 °F 73.4 °F 66% 29.95 in 6.2 mi East 12.7 mph - N/A   Partly Cloudy
6:00 PM 84.2 °F 90.9 °F 73.4 °F 70% 29.95 in 6.2 mi ENE 12.7 mph - N/A   Partly Cloudy
7:00 PM 84.2 °F 90.9 °F 73.4 °F 70% 29.95 in 6.2 mi East 12.7 mph - N/A   Partly Cloudy
8:00 PM 83 °F - 74 °F 67% 29.98 in 22 mi East 12.7 mph - -  
8:00 PM 84.2 °F 90.9 °F 73.4 °F 70% 29.98 in 6.2 mi East 12.7 mph - N/A   Partly Cloudy
9:00 PM 82.4 °F 88.2 °F 73.4 °F 74% 29.98 in 6.2 mi East 10.4 mph - N/A   Partly Cloudy
10:00 PM 82.4 °F 88.2 °F 73.4 °F 74% 29.98 in 6.2 mi ENE 12.7 mph - N/A   Partly Cloudy
11:00 PM 83 °F - 73 °F 66% 29.99 in 22 mi East 11.5 mph - -   Partly Cloudy
11:00 PM 82.4 °F 88.2 °F 73.4 °F 74% 29.98 in 6.2 mi East 11.5 mph - N/A   Scattered Clouds